CZ-6A R/B, 63605

Orbit data source: Space-Track

CZ-6A R/B, 63605 is space debris in SSO originally from a launch on Fri, 18 Apr 2025 UTC launched from the Taiyaun Space Center, China (TSC). Debris objects in space refer to the collection of defunct objects orbiting the Earth. Examples of debris include non-operational satellites, rocket bodies, and fragments generated from explosions, collisions, or faulty payload assembly.

Loading next visibility...
Identifier
63605, 2025-078G
Orbit
SSO
Country
Flag of CNCN / PRC
Related business
Manufacturer
SAST
Mission
Spacecraft
Bus & Motor
CZ-6A STAGE 2, YF-115
Mass
~6,000 kg wet, ~6,000 kg dry
Launch date (UTC)
2025-04-18 (5 months ago)
Launch vehicle
Unknown
Launch site
Taiyaun Space Center, China (TSC)
Object type
Payload
Rocket body
Debris
Shape & HBR
Unknown shape, 5.5 m
Radar Cross Section
Large (>1 m²)

Expand to show TLE details & history
Last TLE update: 15 hours ago

TLE from 15 hours ago
0 CZ-6A R/B
1 63605U 25078G   25258.56972301 -.00000051  00000-0 -21172-5 0  9993
2 63605  99.7010 274.6069 0107075  68.5052 292.7484 13.94761725 20832
Epoch: 2025-09-15T13:40Z
TLE epoch observation values (Epoch: 2025-09-15T13:40:24.068Z)
Latitude
0.00002°
Longitude
74.73412°
Altitude
885.363 km
Speed
7.425 km/s
True Right ascension
18h 18m 25s
True Declination
0° 00' 00"
Sunlit
Object was in daylight at epoch
Visualization orbit readout
Latitude
Unknown
Longitude
Unknown
Altitude
Unknown
Speed
Unknown
Apparent Right ascension
Unknown
Apparent Declination
Unknown
Sunlit
N/A
Visualization observer readout
Local Sidereal Time
21:32:53
Azimuth
Unknown
Elevation
Unknown
Doppler factor
Unknown
Orbital elements
Apogee altitude
987.262 km
Perigee altitude
831.203 km
Semi-major axis
7,287.37 km
Eccentricity
0.01071
Inclination
99.701°
RAAN
274.6069°
Arg. of periapsis
68.5052°
True anomaly
291.61105°
Mean anomaly
292.7484°
Eccentric anomaly
292.1803°
Mean motion
3.48889 °/min
Orbital period
103.18 mins
BSTAR
-0.0000021172
Loading maneuver chart data...
Computing Atmospheric mass density...
Loading historical data...
Loading historical data...
Loading historical data...
Loading historical data...
Loading historical data...
Loading historical data...
Loading historical data...

Documentation

Showing up to 5 results
|